Tracking 25709 objects as of 23-May-2022
HD Live streaming from Space Station
objects crossing your sky now

COSMOS 2251 DEB

Track COSMOS 2251 DEB now!
10-day predictions


NORAD ID: 37501
Int'l Code: 1993-036BME
Perigee: 575.8 km
Apogee: 652.6 km
Inclination: 74.0 °
Period: 96.8 minutes
Semi major axis: 6985 km
RCS: 0.003 m2 (small)
Launch date: June 16, 1993
Source: Commonwealth of Independent States (former USSR) (CIS)
Launch site: PLESETSK MISSILE AND SPACE COMPLEX (PKMTR)

Note: This is SATELLITE DEBRIS
aabbcc
Your satellite tracking list
Your tracking list is empty




NASA's NSSDC Master Catalog

Two Line Element Set (TLE):
1 37501U 93036BME 22141.12055733  .00021526  00000-0  23300-2 0  9999
2 37501  74.0026 302.7317 0054930  59.3913 301.2667 14.87079761407704
Source of the keplerian elements: AFSPC